When you browse on this site, cookies collect data to enhance your experience and personalize the content and advertising you see.
Visit our Privacy Policy to learn more. By continuing to use the site, you agree to this use of cookies and data.
  • In Hungary
  • List of Countries
  • For 7 days
  • Water Temperature
  • Satellite Maps
  • Weather Map
  • News
  • Weather Widgets
  • user-avatar
    Login

    Hourly Weather Caravaca

    Today, 14 December, Friday

    Time Temperature Precipitation Wind Pressure Humidity
    00:00 +5°C° 0 mm 10 mps 708 mmHg 65%
    01:00 +5°C° 0 mm 9 mps 708 mmHg 66%
    02:00 +3°C° 0 mm 9 mps 709 mmHg 67%
    03:00 +3°C° 0 mm 9 mps 709 mmHg 68%
    04:00 +4°C° 0 mm 8 mps 710 mmHg 69%
    05:00 +4°C° 0 mm 8 mps 710 mmHg 70%
    06:00 +3°C° 0 mm 5 mps 711 mmHg 72%
    07:00 +4°C° 0 mm 6 mps 711 mmHg 69%
    08:00 +5°C° 0 mm 7 mps 712 mmHg 65%
    09:00 +5°C° 0 mm 8 mps 712 mmHg 62%
    10:00 +6°C° 0 mm 9 mps 713 mmHg 58%
    11:00 +8°C° 0 mm 9 mps 713 mmHg 54%
    12:00 +10°C° 0 mm 9 mps 714 mmHg 50%
    13:00 +10°C° 0 mm 9 mps 714 mmHg 50%
    14:00 +10°C° 0 mm 9 mps 714 mmHg 50%
    15:00 +10°C° 0 mm 8 mps 714 mmHg 50%
    16:00 +9°C° 0 mm 7 mps 714 mmHg 54%
    17:00 +8°C° 0 mm 6 mps 714 mmHg 59%
    18:00 +7°C° 0 mm 5 mps 715 mmHg 64%
    19:00 +6°C° 0 mm 4 mps 715 mmHg 65%
    20:00 +6°C° 0 mm 4 mps 716 mmHg 67%
    21:00 +5°C° 0 mm 4 mps 716 mmHg 68%
    22:00 +5°C° 0 mm 4 mps 716 mmHg 68%
    23:00 +5°C° 0 mm 4 mps 716 mmHg 68%

    Tomorrow, 15 December, Saturday

    Time Temperature Precipitation Wind Pressure Humidity
    00:00 +5°C° 0 mm 3 mps 716 mmHg 68%
    01:00 +5°C° 0 mm 3 mps 716 mmHg 67%
    02:00 +5°C° 0 mm 3 mps 716 mmHg 66%
    03:00 +5°C° 0 mm 3 mps 716 mmHg 64%
    04:00 +5°C° 0 mm 3 mps 716 mmHg 63%
    05:00 +5°C° 0 mm 3 mps 716 mmHg 62%
    06:00 +5°C° 0 mm 3 mps 716 mmHg 60%
    07:00 +7°C° 0 mm 3 mps 717 mmHg 58%
    08:00 +9°C° 0 mm 3 mps 717 mmHg 56%
    09:00 +10°C° 0 mm 3 mps 718 mmHg 53%
    10:00 +12°C° 0 mm 3 mps 718 mmHg 51%
    11:00 +14°C° 0 mm 3 mps 718 mmHg 48%
    12:00 +17°C° 0 mm 4 mps 718 mmHg 46%
    13:00 +17°C° 0 mm 3 mps 717 mmHg 46%
    14:00 +18°C° 0 mm 3 mps 717 mmHg 47%
    15:00 +18°C° 0 mm 3 mps 717 mmHg 48%
    16:00 +16°C° 0 mm 3 mps 717 mmHg 55%
    17:00 +15°C° 0 mm 2 mps 717 mmHg 61%
    18:00 +13°C° 0 mm 2 mps 716 mmHg 68%
    19:00 +12°C° 0 mm 2 mps 716 mmHg 70%
    20:00 +12°C° 0 mm 2 mps 717 mmHg 71%
    21:00 +12°C° 0 mm 2 mps 717 mmHg 72%
    22:00 +12°C° 0 mm 2 mps 716 mmHg 74%
    23:00 +10°C° 0 mm 2 mps 716 mmHg 75%

    Day after tomorrow, 16 December, Sunday

    Time Temperature Precipitation Wind Pressure Humidity
    00:00 +10°C° 0 mm 2 mps 716 mmHg 77%
    01:00 +10°C° 0 mm 2 mps 715 mmHg 77%
    02:00 +10°C° 0 mm 2 mps 715 mmHg 78%
    03:00 +10°C° 0 mm 2 mps 715 mmHg 78%
    04:00 +10°C° 0 mm 2 mps 715 mmHg 78%
    05:00 +10°C° 0 mm 2 mps 714 mmHg 78%
    06:00 +9°C° 0 mm 2 mps 714 mmHg 79%
    07:00 +12°C° 0 mm 2 mps 714 mmHg 74%
    08:00 +13°C° 0 mm 2 mps 715 mmHg 69%
    09:00 +14°C° 0 mm 2 mps 715 mmHg 64%
    10:00 +16°C° 0 mm 3 mps 715 mmHg 57%
    11:00 +18°C° 0 mm 4 mps 715 mmHg 50%
    12:00 +19°C° 0 mm 5 mps 715 mmHg 43%
    13:00 +19°C° 0 mm 6 mps 715 mmHg 43%
    14:00 +18°C° 0 mm 7 mps 714 mmHg 43%
    15:00 +18°C° 0 mm 7 mps 714 mmHg 43%
    16:00 +16°C° 0 mm 6 mps 714 mmHg 51%
    17:00 +14°C° 0 mm 5 mps 715 mmHg 58%
    18:00 +13°C° 0 mm 4 mps 715 mmHg 66%
    19:00 +12°C° 0 mm 4 mps 715 mmHg 70%
    20:00 +11°C° 0 mm 4 mps 716 mmHg 73%
    21:00 +11°C° 0 mm 3 mps 716 mmHg 77%
    22:00 +10°C° 0 mm 3 mps 716 mmHg 79%
    23:00 +10°C° 0 mm 3 mps 716 mmHg 80%

    17 December, Monday

    Time Temperature Precipitation Wind Pressure Humidity
    00:00 +9°C° 0 mm 3 mps 717 mmHg 82%
    01:00 +9°C° 0 mm 3 mps 717 mmHg 83%
    02:00 +8°C° 0 mm 3 mps 717 mmHg 84%
    03:00 +8°C° 0 mm 3 mps 717 mmHg 85%
    04:00 +7°C° 0 mm 3 mps 717 mmHg 84%
    05:00 +7°C° 0 mm 3 mps 717 mmHg 84%
    06:00 +7°C° 0 mm 3 mps 717 mmHg 83%
    07:00 +8°C° 0 mm 3 mps 718 mmHg 79%
    08:00 +8°C° 0 mm 3 mps 718 mmHg 75%
    09:00 +9°C° 0 mm 3 mps 719 mmHg 71%
    10:00 +10°C° 0 mm 2 mps 719 mmHg 62%
    11:00 +12°C° 0 mm 2 mps 719 mmHg 54%
    12:00 +14°C° 0 mm 2 mps 719 mmHg 45%
    13:00 +14°C° 0 mm 2 mps 719 mmHg 43%
    14:00 +14°C° 0 mm 2 mps 719 mmHg 41%
    15:00 +15°C° 0 mm 2 mps 718 mmHg 39%
    16:00 +13°C° 0 mm 1 mps 718 mmHg 45%
    17:00 +11°C° 0 mm 1 mps 718 mmHg 52%
    18:00 +10°C° 0 mm 1 mps 718 mmHg 59%
    19:00 +9°C° 0 mm 1 mps 719 mmHg 63%
    20:00 +9°C° 0 mm 1 mps 719 mmHg 67%
    21:00 +8°C° 0 mm 1 mps 719 mmHg 70%
    22:00 +8°C° 0 mm 1 mps 719 mmHg 74%
    23:00 +8°C° 0 mm 1 mps 718 mmHg 77%

    18 December, Tuesday

    Time Temperature Precipitation Wind Pressure Humidity
    00:00 +8°C° 0 mm 1 mps 718 mmHg 80%
    01:00 +8°C° 0 mm 1 mps 718 mmHg 83%
    02:00 +7°C° 0 mm 1 mps 718 mmHg 86%
    03:00 +7°C° 0 mm 1 mps 717 mmHg 89%
    04:00 +7°C° 0 mm 1 mps 717 mmHg 89%
    05:00 +6°C° 0 mm 1 mps 717 mmHg 89%
    06:00 +6°C° 0 mm 1 mps 717 mmHg 89%
    07:00 +8°C° 0 mm 1 mps 717 mmHg 85%
    08:00 +9°C° 0 mm 1 mps 717 mmHg 80%
    09:00 +10°C° 0 mm 1 mps 718 mmHg 75%
    10:00 +12°C° 0 mm 1 mps 718 mmHg 68%
    11:00 +13°C° 0 mm 1 mps 717 mmHg 60%
    12:00 +15°C° 0 mm 1 mps 717 mmHg 52%
    13:00 +15°C° 0 mm 1 mps 717 mmHg 49%
    14:00 +16°C° 0 mm 1 mps 716 mmHg 47%
    15:00 +16°C° 0 mm 2 mps 716 mmHg 44%
    16:00 +14°C° 0 mm 1 mps 716 mmHg 52%
    17:00 +12°C° 0 mm 1 mps 716 mmHg 60%
    18:00 +11°C° 0 mm 1 mps 716 mmHg 68%
    19:00 +10°C° 0 mm 1 mps 716 mmHg 68%
    20:00 +10°C° 0 mm 1 mps 716 mmHg 68%
    21:00 +9°C° 0 mm 1 mps 716 mmHg 68%
    22:00 +9°C° 0 mm 1 mps 716 mmHg 67%
    23:00 +9°C° 0 mm 1 mps 716 mmHg 66%

    19 December, Wednesday

    Time Temperature Precipitation Wind Pressure Humidity
    00:00 +9°C° 0 mm 1 mps 716 mmHg 65%
    01:00 +9°C° 0 mm 1 mps 716 mmHg 64%
    02:00 +9°C° 0 mm 1 mps 715 mmHg 63%
    03:00 +9°C° 0 mm 1 mps 715 mmHg 63%
    04:00 +9°C° 0 mm 1 mps 715 mmHg 62%
    05:00 +9°C° 0 mm 1 mps 715 mmHg 61%
    06:00 +9°C° 0 mm 1 mps 715 mmHg 60%
    07:00 +9°C° 0 mm 2 mps 715 mmHg 59%
    08:00 +10°C° 0 mm 2 mps 716 mmHg 57%
    09:00 +12°C° 0 mm 2 mps 716 mmHg 55%
    10:00 +13°C° 0.2 mm 2 mps 716 mmHg 55%
    11:00 +14°C° 0.2 mm 2 mps 716 mmHg 55%
    12:00 +15°C° 0.2 mm 2 mps 716 mmHg 55%
    13:00 +15°C° 0 mm 2 mps 716 mmHg 56%
    14:00 +15°C° 0 mm 2 mps 716 mmHg 57%
    15:00 +16°C° 0 mm 3 mps 715 mmHg 58%
    16:00 +14°C° 0 mm 2 mps 715 mmHg 64%
    17:00 +13°C° 0 mm 2 mps 715 mmHg 71%
    18:00 +11°C° 0 mm 1 mps 715 mmHg 77%
    19:00 +11°C° 0 mm 1 mps 715 mmHg 78%
    20:00 +11°C° 0 mm 1 mps 716 mmHg 80%
    21:00 +11°C° 0 mm 1 mps 716 mmHg 81%
    22:00 +10°C° 0 mm 1 mps 716 mmHg 82%
    23:00 +10°C° 0 mm 1 mps 715 mmHg 84%
    Show more